Location: Ferchesar
(52.6477°N, 12.4298°E)
Time: 15:27:05
(UTC+01:00)

Vanguard 1 - Pass Details

Date: 09 December 2021
Orbit: 652 x 3830 km, 34.2° (Epoch: 22 January)

Event Time Altitude Azimuth Distance (km) Brightness Sun altitude
Rises 22:52:40 0° 228° (SW) 6,673 14.3 -57.4°
Enters shadow 22:55:30 - 224° (SW) 6,232 14.0 -57.6°
Reaches altitude 10° 22:57:01 10° 221° (SW) 6,011 - -57.7°
Maximum altitude 23:15:07 41° 160° (SSE) 4,772 - -58.9°
Drops below altitude 10° 23:35:07 10° 101° (E) 6,621 - -59.8°
Exits shadow 23:36:08 - 100° (E) 6,767 14.2 -59.8°
Sets 23:40:12 0° 95° (E) 7,381 14.5 -59.9°
